EST,Max TemperatureF,Mean TemperatureF,Min TemperatureF,Max Dew PointF,MeanDew PointF,Min DewpointF,Max Humidity, Mean Humidity, Min Humidity, Max Sea Level PressureIn, Mean Sea Level PressureIn, Min Sea Level PressureIn, Max VisibilityMiles, Mean VisibilityMiles, Min VisibilityMiles, Max Wind SpeedMPH, Mean Wind SpeedMPH, Max Gust SpeedMPH,PrecipitationIn, CloudCover, Events, WindDirDegrees
2012-2-1,55,42,30,42,33,27,89,73,57,29.97,29.88,29.78,10,10,10,13,3,24,0.02,4,Rain,263
2012-2-2,39,34,27,29,25,16,76,66,60,30.22,30.06,29.98,10,10,10,15,6,20,0.00,8,,337
2012-2-3,37,28,19,20,14,8,68,54,31,30.40,30.32,30.24,10,10,10,17,9,16,0.00,3,,314
2012-2-4,39,30,19,25,18,12,92,60,44,30.26,30.18,30.12,10,10,10,16,4,20,0.00,4,,298
2012-2-5,34,23,12,14,10,6,84,57,34,30.19,30.13,30.08,10,10,10,8,4,,0.00,0,,320
2012-2-6,50,33,16,22,19,13,88,62,27,30.08,29.95,29.86,10,10,10,15,4,20,0.00,0,,231
2012-2-7,42,32,21,28,22,15,92,70,47,30.25,30.04,29.90,10,10,10,9,3,,0.00,4,,321
2012-2-8,34,23,12,19,13,8,92,64,34,30.32,30.22,30.08,10,10,10,9,2,,0.00,3,,201
2012-2-9,44,32,19,18,15,8,82,57,23,30.12,30.05,29.99,10,10,9,12,3,20,0.00,1,,266
2012-2-10,45,30,16,24,18,13,92,64,34,30.11,30.01,29.88,10,10,8,13,3,22,0.00,1,,213
2012-2-11,39,31,19,28,22,9,93,70,43,29.88,29.72,29.57,10,8,2,20,4,29,0.00,6,Snow,348
2012-2-12,24,17,10,3,-1,-4,56,45,34,29.89,29.74,29.66,10,10,10,20,13,29,0.00,1,,306
2012-2-13,37,24,12,20,13,-1,88,65,38,29.99,29.88,29.82,10,8,3,18,7,34,0.00,4,Snow,225
2012-2-14,39,27,15,21,15,8,92,64,28,30.11,30.06,30.00,10,10,10,12,2,,0.00,5,,187
2012-2-15,44,35,24,34,27,21,96,75,58,30.27,30.16,30.08,10,10,5,6,1,,0.00,7,,278
2012-2-16,41,30,19,34,26,17,100,89,57,30.30,30.19,30.02,10,5,1,9,2,,0.02,5,Rain-Snow,173
2012-2-17,45,36,27,38,30,18,100,74,40,29.99,29.94,29.89,10,9,4,20,6,23,0.00,5,,243
2012-2-18,43,36,28,27,21,18,85,57,37,30.00,29.93,29.84,10,10,10,13,7,18,0.00,5,,268
2012-2-19,42,32,21,27,18,14,85,60,32,30.08,30.03,29.98,10,10,8,15,4,21,0.00,1,,331
2012-2-20,37,28,19,16,11,6,81,54,27,30.32,30.15,30.01,10,10,10,24,6,29,0.00,0,,336
2012-2-21,39,26,12,33,21,10,96,74,36,30.35,30.12,29.83,10,8,2,15,4,20,0.01,3,Snow,185
2012-2-22,53,40,28,37,28,20,100,78,28,29.82,29.67,29.51,10,5,0,13,2,26,0.00,3,Fog,212
2012-2-23,48,39,28,41,30,21,96,73,39,29.79,29.51,29.37,10,10,6,22,4,36,0.02,4,Rain,257
2012-2-24,34,31,28,34,31,24,100,93,75,29.78,29.54,29.27,10,5,1,10,2,,0.68,8,Rain-Snow-Thunderstorm,354
2012-2-25,37,32,28,32,23,15,89,64,43,29.86,29.44,29.24,10,8,1,26,13,44,0.00,7,Rain-Snow,265
2012-2-26,36,28,21,13,6,1,62,40,24,30.44,30.26,29.91,10,10,10,18,9,29,0.00,0,,282
2012-2-27,46,31,16,31,22,13,88,65,43,30.44,30.23,30.06,10,10,10,14,4,25,0.00,5,,186
2012-2-28,44,35,26,24,19,12,72,51,30,30.39,30.27,30.09,10,10,10,26,14,38,0.00,4,,310
2012-2-29,34,31,28,29,27,20,100,87,59,30.38,30.13,29.91,10,3,0,9,2,,0.28,8,Fog-Snow,81